| time (UTC) | temp C | wind direction | speed KPH | gust KPH | rain 1hr cm | rain 24hr cm | rain mn cm | humidity % | barometer mb |
| 20260504081550 | 8 | 350 | 14.5 | 20.9 | 0.00 | 0.00 | 0.00 | 71 | 995.0 |
| 20260504050015 | 13 | 215 | 27.4 | 35.4 | 0.00 | 0.00 | 0.00 | 53 | 993.3 |
| 20260504044509 | 12 | 206 | 22.5 | 30.6 | 0.00 | 0.00 | 0.00 | 55 | 993.5 |
| 20260504043007 | 12 | 215 | 19.3 | 27.4 | 0.00 | 0.00 | 0.00 | 56 | 993.6 |
| 20260504041505 | 12 | 220 | 17.7 | 24.1 | 0.00 | 0.00 | 0.00 | 56 | 994.0 |
| 20260504040004 | 12 | 211 | 17.7 | 29.0 | 0.00 | 0.00 | 0.00 | 54 | 994.3 |
| 20260504034502 | 13 | 211 | 20.9 | 30.6 | 0.00 | 0.00 | 0.00 | 51 | 994.4 |
| 20260504033002 | 13 | 201 | 20.9 | 29.0 | 0.00 | 0.00 | 0.00 | 50 | 994.7 |
| 20260504031602 | 14 | 210 | 22.5 | 32.2 | 0.00 | 0.00 | 0.00 | 48 | 995.2 |
| 20260504030057 | 14 | 200 | 20.9 | 27.4 | 0.00 | 0.00 | 0.00 | 48 | 995.3 |
| 20260504024555 | 15 | 206 | 19.3 | 29.0 | 0.00 | 0.00 | 0.00 | 47 | 995.5 |
| 20260504023054 | 15 | 202 | 20.9 | 30.6 | 0.00 | 0.00 | 0.00 | 45 | 995.7 |
| 20260504021554 | 15 | 184 | 19.3 | 24.1 | 0.00 | 0.00 | 0.00 | 44 | 995.7 |
| 20260504020127 | 15 | 198 | 16.1 | 20.9 | 0.00 | 0.00 | 0.00 | 45 | 996.0 |
| 20260504014600 | 15 | 197 | 12.9 | 17.7 | 0.00 | 0.00 | 0.00 | 44 | 996.2 |
| 20260504013058 | 16 | 199 | 12.9 | 17.7 | 0.00 | 0.00 | 0.00 | 40 | 996.4 |
| 20260504011547 | 17 | 198 | 14.5 | 19.3 | 0.00 | 0.00 | 0.00 | 37 | 996.6 |
| 20260504010046 | 18 | 193 | 14.5 | 17.7 | 0.00 | 0.00 | 0.00 | 34 | 997.1 |
| 20260504004610 | 20 | 210 | 14.5 | 25.7 | 0.00 | 0.00 | 0.00 | 32 | 997.4 |
| 20260504003048 | 20 | 221 | 17.7 | 24.1 | 0.00 | 0.00 | 0.00 | 30 | 997.8 |
| 20260504001555 | 20 | 223 | 24.1 | 38.6 | 0.00 | 0.00 | 0.00 | 28 | 998.0 |
| 20260504000035 | 21 | 229 | 19.3 | 35.4 | 0.00 | 0.00 | 0.00 | 26 | 998.2 |
| 20260503234533 | 21 | 228 | 22.5 | 32.2 | 0.00 | 0.00 | 0.00 | 26 | 998.7 |
| 20260503233035 | 21 | 222 | 22.5 | 38.6 | 0.00 | 0.00 | 0.00 | 24 | 999.1 |
| 20260503231529 | 22 | 246 | 29.0 | 37.0 | 0.00 | 0.00 | 0.00 | 24 | 999.3 |
| 20260503230033 | 22 | 255 | 22.5 | 35.4 | 0.00 | 0.00 | 0.00 | 23 | 999.4 |
| 20260503224525 | 22 | 234 | 25.7 | 40.2 | 0.00 | 0.00 | 0.00 | 22 | 999.5 |
| 20260503223023 | 22 | 219 | 20.9 | 37.0 | 0.00 | 0.00 | 0.00 | 21 | 999.6 |
| 20260503221523 | 22 | 244 | 25.7 | 38.6 | 0.00 | 0.00 | 0.00 | 20 | 1000.0 |
| 20260503220020 | 22 | 242 | 29.0 | 37.0 | 0.00 | 0.00 | 0.00 | 21 | 1000.2 |
| 20260503214519 | 22 | 248 | 20.9 | 45.1 | 0.00 | 0.00 | 0.00 | 23 | 1000.4 |
| 20260503213016 | 22 | 244 | 20.9 | 38.6 | 0.00 | 0.00 | 0.00 | 22 | 1000.9 |
| 20260503211513 | 22 | 236 | 30.6 | 41.8 | 0.00 | 0.00 | 0.00 | 24 | 1001.3 |
| 20260503210011 | 21 | 245 | 20.9 | 33.8 | 0.00 | 0.00 | 0.00 | 24 | 1001.6 |
| 20260503204509 | 21 | 236 | 17.7 | 33.8 | 0.00 | 0.00 | 0.00 | 25 | 1001.7 |
| 20260503203018 | 21 | 233 | 19.3 | 30.6 | 0.00 | 0.00 | 0.00 | 25 | 1002.0 |
| 20260503201504 | 21 | 263 | 17.7 | 35.4 | 0.00 | 0.00 | 0.00 | 28 | 1002.4 |
| 20260503200001 | 20 | 233 | 17.7 | 29.0 | 0.00 | 0.00 | 0.00 | 27 | 1002.8 |
| 20260503194559 | 21 | 227 | 24.1 | 32.2 | 0.00 | 0.00 | 0.00 | 26 | 1003.0 |
| 20260503193058 | 20 | 265 | 12.9 | 25.7 | 0.00 | 0.00 | 0.00 | 29 | 1003.3 |
| 20260503191556 | 20 | 254 | 12.9 | 27.4 | 0.00 | 0.00 | 0.00 | 30 | 1003.5 |
| 20260503190101 | 20 | 284 | 16.1 | 24.1 | 0.00 | 0.00 | 0.00 | 31 | 1003.8 |
| 20260503184552 | 19 | 246 | 17.7 | 38.6 | 0.00 | 0.00 | 0.00 | 32 | 1004.0 |
| 20260503183048 | 19 | 312 | 14.5 | 24.1 | 0.00 | 0.00 | 0.00 | 32 | 1004.5 |
| 20260503181554 | 19 | 248 | 14.5 | 27.4 | 0.00 | 0.00 | 0.00 | 35 | 1004.6 |
| 20260503180051 | 18 | 261 | 14.5 | 35.4 | 0.00 | 0.00 | 0.00 | 32 | 1004.8 |
| 20260503174543 | 18 | 294 | 16.1 | 27.4 | 0.00 | 0.00 | 0.00 | 35 | 1005.2 |
| 20260503173041 | 18 | 276 | 17.7 | 29.0 | 0.00 | 0.00 | 0.00 | 35 | 1005.6 |
| 20260503171536 | 18 | 342 | 9.7 | 29.0 | 0.00 | 0.00 | 0.00 | 35 | 1005.9 |